Weather in Novoulyanovsk

Russia / Ulyanovsk Oblast     54°09′06″N   48°23′05″E
temp.,
°C
wind,
m/s
gust,
m/s
humid.,
%
clouds,
%
prec.,
mm/h
press.,
hPa
HPBL,
m
28 june, tue
tue2801:00+17n48878 0.0 1014177
04:00+15nne489127 0.0 1014390
07:00+13ne68810 0.0 1016533
10:00+14nne78614 0.0 1017985
13:00+15nne57546 0.0 10181244
16:00+17nne785259 0.0 10181353
19:00+15ne685828 0.0 10181197
22:00+14n57614 0.0 1019861
29 june, wed
wed2901:00+12ne23685 0.0 1020145
04:00+11nnw24725 0.0 1020311
07:00+12n796511 0.0 1021782
10:00+14n46565 0.0 1021890
13:00+17n57527 0.0 10191387
16:00+18n57515 0.0 1018783
19:00+18nnw475824 0.0 1017391
22:00+16wnw466422 0.0 1017111
30 june, thu
thu3001:00+14wnw47630 0.0 1016198
04:00+13wnw5866100 0.0 1015207
07:00+14wnw6106737 0.0 1014349
10:00+17nnw7105692 0.0 1013839
13:00+18nw685213 0.0 1012794
16:00+19nnw6955100 0.0 1011699
19:00+17n7106340 0.4 1012988
22:00+14nne6964100 0.4 1014709
1 july, fri
fri101:00+13n796053 0.0 1014856
04:00+11n79720 0.0 1015610
07:00+12n711730 0.0 1015673
10:00+14n810615 0.0 10161182
13:00+15n895778 0.0 10161750
16:00+15nne8126292 0.1 10171714
19:00+16n686364 0.1 10171007
22:00+15nnw47677 0.2 1017323
2 july, sat
sat201:00+14nw476815 0.0 1017217
04:00+13nw47685 0.0 1017208
07:00+14nw46672 0.0 1017262
10:00+18nw35590 0.0 1016331
13:00+21nnw24544 0.0 1015516
16:00+22nnw345172 0.0 1014559
19:00+22wnw2460100 0.0 1013236
22:00+19wsw3578100 0.4 101273